Regional Weather Roundup
Issued by NWS Newport/Morehead, NC

Current Version | Previous Version | Graphics & Text | Print | Product List | Glossary Off
Versions: 1 2 3 4 5 6 7 8 9 10 11 12 13 14 15 16 17 18 19 20 21 22 23 24 25 26 27 28 29 30 31 32 33 34 35 36 37 38 39 40 41 42 43 44 45 46 47 48 49 50

000
ASUS42 KMHX 270525
RWRMHX
WEATHER ROUNDUP FOR EASTERN NORTH CAROLINA
NATIONAL WEATHER SERVICE NEWPORT/MOREHEAD CITY NC
100 AM EDT WED MAY 27 2015

NOTE: "FAIR" INDICATES FEW OR NO CLOUDS BELOW 12,000 FEET
WITH NO SIGNIFICANT WEATHER AND/OR OBSTRUCTIONS TO VISIBILITY

NCZ015>017-031-032-045>047-102-103-270600-
NORTH COAST

CITY           SKY/WX    TMP DP  RH WIND       PRES   REMARKS
EDENTON        PTCLDY    71  66  84 S9        30.27R
ELIZABETH CITY PTCLDY    71  66  84 S8        30.26S
KITTY HAWK     CLEAR     72  64  77 S7        30.26S
MANTEO         CLEAR     73  65  77 SW16      30.27F

$$

NCZ045>047-081-094-103-104-270600-
CENTRAL COAST

CITY           SKY/WX    TMP DP  RH WIND       PRES   REMARKS
FRISCO         CLEAR     72  62  71 S15       30.29F
SWANQUARTER      N/A     73 N/A N/A S15G21    30.24S

$$

NCZ095-097-098-100-101-270600-
SOUTHERN COAST

CITY           SKY/WX    TMP DP  RH WIND       PRES   REMARKS
BEAUFORT       CLEAR     73  67  81 S10       30.27F
CEDAR ISLAND     N/A     72 N/A N/A S12       30.30F
JACKSONVILLE   PTCLDY    73  67  81 S6        30.26F
PINEY ISLAND   CLEAR    N/A N/A N/A S6        30.27F
WILMINGTON     CLOUDY    75  69  81 S8        30.27S


$$

NCZ011>013-027>030-043-044-078>080-089-090>093-098-270600-
COASTAL PLAIN

CITY           SKY/WX    TMP DP  RH WIND       PRES   REMARKS
AHOSKIE        PTCLDY    71  67  87 S7        30.26S
CLINTON        MOCLDY    72  71  99 S3        30.27S
ELIZABETHTOWN  MOCLDY    72  70  93 CALM      30.26F
GOLDSBORO      MOCLDY    73  70  88 CALM      30.24F
GREENVILLE     PTCLDY    72  70  94 SW6       30.27S
HAVELOCK       CLEAR     71  65  81 S5        30.28F
KENANSVILLE    CLOUDY    71  68  92 CALM      30.28F
KINSTON        PTCLDY    72  68  88 S6        30.27S
NEW BERN       CLEAR     70  66  87 S5        30.28F
RICHLANDS      PTCLDY    70  64  83 S3        30.27F
ROCKY MOUNT    CLOUDY    74  69  85 S7        30.25F
WASHINGTON     CLEAR     70  66  88 CALM      30.27S
WHITEVILLE     CLOUDY    73  68  83 CALM      30.26S

$$

AMZ130-135-150-152-154-156-158-170-250-252-270-ANZ085-086-088-633-658-670-270600-
MARINE OBSERVATIONS

STATION/POSITION TIME  TEMP    WIND        PRES    WAVE   SWELL
                       AIR SEA DIR/SP/G            HT/PER HT/PER
                 (UTC) (F)     (DEG/KT/KT) (MB)    (FT/S) (FT/S)
CHESAPEAKE LIGHT 0500   67     190/ 20/ 21 1024.5
64 E VA BEACH    0450   66 63  180/ 12/ 14 1024.8    3/ 5   2/ 5
DUCK             0500   72 57  210/ 13/ 18 1024.0
2 E DUCK         0411      62                N/A     2/ 5
OREGON INLET     0500   74 76  180/ 16/ 19 1025.1
13E OREGON INLT  0500      67                N/A     3/ 4
HATTERAS CG      0500   74 76  180/  8/ 16 1025.0
DIAMOND BUOY     0450   74 76  180/ 16/ 19 1025.7    3/ 5   2/ 8
CAPE LOOKOUT     0500   74     170/ 13/ 15 1025.0
BEAUFORT LAB     0500   75 75  180/ 14/ 16 1024.1
27 SE WRIGHTSVLE 0500   72 76  200/ 14/ 16   N/A
5 SE WRIGHTSVLE  0408   76 76  180/ 14/ 19 1025.0
225 S CAPE HAT   0450   73 74  130/ 10/ 12 1026.3    4/ 8   3/ 8
41 SE CHARLESTON 0450   78 76  180/ 10/ 12 1024.0    4/ 7   3/ 7

$$


USA.gov is the U.S. government's official web portal to all federal, state and local government web resources and services.